Regional Weather Roundup
Issued by NWS Charleston, SC

Current Version | Previous Version | Text Only | Print | Product List | Glossary Off
Versions: 1 2 3 4 5 6 7 8 9 10 11 12 13 14 15 16 17 18 19 20 21 22 23 24 25 26 27 28 29 30 31 32 33 34 35 36 37 38 39 40 41 42 43 44 45 46 47 48 49 50

000
ASUS42 KCHS 260311
RWRCHS

REGIONAL WEATHER ROUNDUP
NATIONAL WEATHER SERVICE CHARLESTON SC
1000 PM EST SAT FEB 25 2017

NOTE: "FAIR" INDICATES FEW OR NO CLOUDS BELOW 12,000 FEET WITH NO
SIGNIFICANT WEATHER AND/OR OBSTRUCTIONS TO VISIBILITY.

NOT ALL STATIONS ARE QUALITY CONTROLLED. USE DATA WITH CAUTION...
ESPECIALLY DEWPOINT OBSERVATIONS.

SCZ027-030-031-034>040-042>050-260400-
...SOUTHEAST SOUTH CAROLINA...

CITY           SKY/WX    TMP DP  RH WIND       PRES   REMARKS
N CHARLESTON   CLEAR     66  19  16 W16G24    29.88R
WATERFRONT PRK   N/A     69  36  29 NW6       29.85R
MOUNT PLEASANT LGT RAIN  66  32  28 NW13      29.87R
JOHNS ISLAND   FAIR      63  34  34 W9G15     29.88R
PINOPOLIS        N/A     66  37  34 NW13      29.77R
MONCKS CORNER  FAIR      63  19  19 CALM      29.88R
SUMMERVILLE    FAIR      63  23  22 W9        29.90R
BEAUFORT MCAS  CLEAR     66  29  24 NW10      29.91R
BEAUFORT ARPT  FAIR      64  32  29 NW9       29.90R
HILTON HEAD IS CLEAR     68  27  21 VRB7G18   29.91R
WALTERBORO     PTCLDY    61  21  21 NW9       29.91R
ALLENDALE      FAIR      59  21  23 CALM      29.92R

...SOUTHERN MIDLANDS AND PEE DEE...

CITY           SKY/WX    TMP DP  RH WIND       PRES   REMARKS
GEORGETOWN     FAIR      63  28  27 W8        29.86R
KINGSTREE      FAIR      61  16  17 W12       29.86R
ORANGEBURG     CLEAR     60  19  20 W12       29.91R
BARNWELL       FAIR      61  21  21 W8G15     29.93R
AIKEN          FAIR      54  19  26 W12       29.96R
MANNING        FAIR      61  19  20 MISG      29.89R
COLUMBIA       CLEAR     58  20  22 W13       29.90R
SUMTER         CLEAR     60  19  20 W12       29.87R
FLORENCE       CLEAR     61  25  25 W8        29.85R
MYRTLE BEACH   CLEAR     68  27  21 W15       29.83R
N MYRTLE BEACH CLEAR     67  25  20 W9        29.82R

$$

GAZ063-065-086>088-099>101-113>116-118-119-134>141-150-260400-
...SOUTHEAST GEORGIA...

CITY           SKY/WX    TMP DP  RH WIND       PRES   REMARKS
SAVANNAH ARPT  CLEAR     64  26  23 NW13      29.92R
HUNTER AAF     CLEAR     62  35  36 W7        29.90R
FORT STEWART   CLEAR     63  28  26 W7        29.92R
STATESBORO     CLEAR     60  29  31 NW12      29.95R
SYLVANIA       CLEAR    N/A N/A N/A NW12G17   29.95R
CLAXTON        FAIR      60  32  33 W6        29.95R

...CSRA...CENTRAL AND FAR SOUTHEAST GEORGIA...

CITY           SKY/WX    TMP DP  RH WIND       PRES   REMARKS
THOMSON        CLEAR     56  25  30 W7        30.01R
AUGUSTA-BUSH   CLEAR     59  19  21 NW12      29.94R
AUGUSTA-DANIEL CLEAR     58  15  18 W10G21    29.95R
SWAINSBORO     FAIR      57  23  26 NW10      29.98R
VIDALIA        CLEAR     61  32  33 NW8       29.97R
EASTMAN        FAIR      59  -6   7 NW3       30.02R
HAZLEHURST     FAIR      62  27  27 NW5       29.97R
ALMA           CLEAR     61  27  27 NW6       29.97R
WAYCROSS       CLEAR     64  35  33 NW7       29.97R
JESUP          FAIR      61  30  31 NW8       29.95R
BAXLEY         FAIR      61  34  36 NW7       29.97R
BRUNSWICK      CLEAR     64  39  39 W7        29.94R
SAINT SIMONS   CLEAR     66  40  38 W7        29.93R

$$

SCZ027-028-034-036>038-045-046-048>050-GAZ119-141-260400-
...LAKE AND SUPPLEMENTAL COASTAL OBSERVATIONS...

STATION/POSITION TIME  TEMP    WIND        PRES    WAVE   SWELL
                       AIR SEA DIR/SP/G            HT/PER HT/PER/DIR
                 (UTC) (F)     (DEG/KT/KT) (MB)    (FT/S) (FT/S/D)
WINYAH BAY       NOT AVBL
LAKE MURRAY      0220   60     270/ 17/ 21 1011.2R
ACE BASIN NERRS  0145   68     270/  3     1010.0
FORT PULASKI     0248   66 64  310/  9/ 11 1012.9R
SAPELO ISLAND    0200   67     290/  6     1012.0

$$

ANZ835-935-AMZ111-154-330-350-352-354-370-450-454-472-260400-
...C-MAN AND BUOY OBSERVATIONS...

STATION/POSITION TIME  TEMP    WIND        PRES    WAVE   SWELL
                       AIR SEA DIR/SP/G            HT/PER HT/PER/DIR
                 (UTC) (F)     (DEG/KT/KT) (MB)    (FT/S) (FT/S/D)
BUOY 41004       0150   71 70  230/ 17/ 21 1009.0    6/11   5/120/11
BUOY 41008       0150   68 63  260/ 14/ 16 1011.4    3/11   3/ 70/11
FOLLY BEACH CMAN 0200   64     240/  5/  7 1011.0R
CAPERS NEARSHORE 0208   63 62  250/ 12/ 16 1010.0R
FRIPP NEARSHORE  0208   69 62  300/ 14/ 17 1011.0R


STATION/POSITION TIME  TEMP    WIND        PRES    WAVE   SWELL
                       AIR SEA DIR/SP/G            HT/PER HT/PER/DIR
                 (UTC) (F)     (DEG/KT/KT) (MB)    (FT/S) (FT/S/D)
5E ST. MARYS GA  0230      66                N/A     2/11   2/ 90/11
FRYING PAN BUOY  0250   71 71  230/ 23/ 29 1008.6R   7/ 6   3/130/10
BUOY 41025       0250   72 75  240/ 29/ 33 1005.2R  10/ 7
CAPE LOOKOUT NC  0200   66     230/ 16/ 23 1006.0R
BUOY 41002       0150   72 71  220/ 14/ 19 1010.8    6/ 9   5/ 70/ 9
BUOY 41010       NOT AVBL
ST AUGUSTINE FL  0300   69 67  250/  6/  8 1015.0R


$$




USA.gov is the U.S. government's official web portal to all federal, state and local government web resources and services.